Tracking 25193 objects as of 18-Jan-2022
HD Live streaming from Space Station
objects crossing your sky now

METEOR PRIRODA

Track METEOR PRIRODA now!
10-day predictions
METEOR PRIRODA is classified as:


NORAD ID: 12585
Int'l Code: 1981-065A
Perigee: 495.7 km
Apogee: 512.8 km
Inclination: 97.6 °
Period: 94.6 minutes
Semi major axis: 6875 km
RCS: 4.6163 m2 (large)
Launch date: July 10, 1981
Source: Commonwealth of Independent States (former USSR) (CIS)
Launch site: TYURATAM MISSILE AND SPACE COMPLEX (TTMTR)
aabbcc
Your satellite tracking list
Your tracking list is empty




NASA's NSSDC Master Catalog

Two Line Element Set (TLE):
1 12585U 81065A   22017.53272849  .00002913  00000-0  12716-3 0  9998
2 12585  97.5814  20.8059 0012450 310.0360  49.9783 15.22904744211198
Source of the keplerian elements: AFSPC